EZY22C DTTA-LIRN

Flight info

Callsign EZY22C
Flight time 1h 2m
Altitude 35000
Route ICANI3C ICANI UB979 SIRVI UM725 SUSIP DCT ADUKA/N0441F360 DCT DORAS DCT SOR SOR1A
Aircraft B737/M-SDE2E3FGHIRWXY/LB1

Departure

Time 2026-05-04 12:27
Airport Tunis Carthage International Airport (DTTA)

Arrival

Time 2026-05-04 13:30
Airport Naples International Airport (LIRN)
Time Latitude Longitude Altitude Speed Heading
2026-05-04 11:53 36.84535 10.21952 29 ft 0 kts 356°
2026-05-04 12:15 36.84531 10.21952 29 ft 2 kts 356°
2026-05-04 12:15 36.84515 10.21953 29 ft 2 kts 356°
2026-05-04 12:16 36.84499 10.21955 29 ft 2 kts 356°
2026-05-04 12:16 36.84484 10.21955 29 ft 2 kts
2026-05-04 12:16 36.84470 10.21952 29 ft 2 kts 18°
2026-05-04 12:16 36.84456 10.21945 29 ft 2 kts 30°
2026-05-04 12:17 36.84447 10.21936 29 ft 2 kts 56°
2026-05-04 12:17 36.84442 10.21926 29 ft 0 kts 72°
2026-05-04 12:20 36.84443 10.21927 29 ft 1 kts 74°
2026-05-04 12:21 36.84441 10.21946 29 ft 4 kts 103°
2026-05-04 12:21 36.84444 10.21992 29 ft 6 kts 70°
2026-05-04 12:21 36.84470 10.22044 29 ft 8 kts 54°
2026-05-04 12:21 36.84500 10.22115 29 ft 10 kts 81°
2026-05-04 12:22 36.84495 10.22206 29 ft 11 kts 92°
2026-05-04 12:22 36.84543 10.22266 29 ft 11 kts 19°
2026-05-04 12:22 36.84620 10.22290 29 ft 12 kts 13°
2026-05-04 12:22 36.84704 10.22313 29 ft 13 kts 13°
2026-05-04 12:23 36.84794 10.22336 29 ft 14 kts 11°
2026-05-04 12:23 36.84890 10.22361 29 ft 14 kts 14°
2026-05-04 12:23 36.84987 10.22379 30 ft 14 kts 334°
2026-05-04 12:23 36.85025 10.22315 30 ft 14 kts 295°
2026-05-04 12:24 36.85065 10.22196 30 ft 13 kts 292°
2026-05-04 12:24 36.85098 10.22093 29 ft 13 kts 292°
2026-05-04 12:24 36.85130 10.21992 29 ft 12 kts 291°
2026-05-04 12:24 36.85160 10.21893 29 ft 12 kts 290°
2026-05-04 12:25 36.85192 10.21798 29 ft 12 kts 293°
2026-05-04 12:25 36.85239 10.21720 29 ft 11 kts 333°
2026-05-04 12:25 36.85314 10.21730 29 ft 11 kts 23°
2026-05-04 12:25 36.85383 10.21767 30 ft 11 kts 25°
2026-05-04 12:26 36.85400 10.21847 29 ft 10 kts 112°
2026-05-04 12:26 36.85398 10.21855 30 ft 0 kts 112°
2026-05-04 12:26 36.85373 10.21930 31 ft 24 kts 113°
2026-05-04 12:27 36.85218 10.22393 34 ft 90 kts 113°
2026-05-04 12:27 36.84904 10.23340 32 ft 143 kts 112°
2026-05-04 12:27 36.84516 10.24535 439 ft 150 kts 111°
2026-05-04 12:27 36.84101 10.25799 851 ft 167 kts 114°
2026-05-04 12:28 36.83624 10.27195 1295 ft 181 kts 122°
2026-05-04 12:28 36.82721 10.28228 1920 ft 177 kts 154°
2026-05-04 12:28 36.81447 10.28523 2220 ft 199 kts 190°
2026-05-04 12:28 36.80205 10.27721 2697 ft 209 kts 226°
2026-05-04 12:29 36.79561 10.26094 3322 ft 215 kts 261°
2026-05-04 12:29 36.79783 10.24249 4019 ft 220 kts 296°
2026-05-04 12:29 36.80814 10.22833 4824 ft 227 kts 326°
2026-05-04 12:29 36.82282 10.22093 5576 ft 232 kts 352°
2026-05-04 12:30 36.83891 10.22363 6383 ft 238 kts 19°
2026-05-04 12:30 36.85341 10.23359 7225 ft 239 kts 30°
2026-05-04 12:30 36.86766 10.24567 7711 ft 262 kts 37°
2026-05-04 12:30 36.88237 10.26111 8051 ft 288 kts 39°
2026-05-04 12:31 36.89750 10.27779 8896 ft 293 kts 40°
2026-05-04 12:31 36.91292 10.29481 9694 ft 297 kts 39°
2026-05-04 12:31 36.92839 10.31174 10264 ft 296 kts 39°
2026-05-04 12:31 36.94419 10.32878 10959 ft 306 kts 39°
2026-05-04 12:32 36.96112 10.34674 11208 ft 333 kts 38°
2026-05-04 12:32 36.99813 10.38593 12415 ft 356 kts 39°
2026-05-04 12:32 37.01713 10.40611 13257 ft 361 kts 39°
2026-05-04 12:33 37.03641 10.42662 14064 ft 367 kts 38°
2026-05-04 12:33 37.05598 10.44747 14837 ft 372 kts 38°
2026-05-04 12:33 37.07577 10.46857 15654 ft 375 kts 38°
2026-05-04 12:33 37.09574 10.48989 16511 ft 379 kts 38°
2026-05-04 12:34 37.11564 10.51115 17294 ft 383 kts 38°
2026-05-04 12:34 37.13632 10.53324 18099 ft 388 kts 38°
2026-05-04 12:34 37.15698 10.55534 18810 ft 393 kts 38°
2026-05-04 12:34 37.17759 10.57741 19500 ft 397 kts 38°
2026-05-04 12:35 37.19868 10.60001 20218 ft 400 kts 38°
2026-05-04 12:35 37.22025 10.62314 20909 ft 404 kts 38°
2026-05-04 12:35 37.24143 10.64586 21550 ft 409 kts 38°
2026-05-04 12:35 37.26318 10.66921 22176 ft 414 kts 37°
2026-05-04 12:36 37.28522 10.69290 22812 ft 419 kts 37°
2026-05-04 12:36 37.30749 10.71684 23438 ft 423 kts 37°
2026-05-04 12:36 37.32992 10.74099 23997 ft 427 kts 37°
2026-05-04 12:36 37.35258 10.76541 24527 ft 431 kts 37°
2026-05-04 12:37 37.37542 10.79004 25068 ft 434 kts 37°
2026-05-04 12:37 37.39840 10.81485 25588 ft 437 kts 37°
2026-05-04 12:37 37.42156 10.83986 26094 ft 441 kts 37°
2026-05-04 12:37 37.44491 10.86510 26584 ft 444 kts 37°
2026-05-04 12:38 37.46844 10.89056 27085 ft 448 kts 36°
2026-05-04 12:38 37.49218 10.91628 27579 ft 451 kts 36°
2026-05-04 12:38 37.51610 10.94219 28055 ft 454 kts 36°
2026-05-04 12:38 37.54011 10.96824 28513 ft 458 kts 36°
2026-05-04 12:39 37.56434 10.99456 28977 ft 461 kts 36°
2026-05-04 12:39 37.58869 11.02103 29416 ft 464 kts 36°
2026-05-04 12:39 37.61320 11.04771 29842 ft 467 kts 36°
2026-05-04 12:39 37.63757 11.07424 30242 ft 470 kts 36°
2026-05-04 12:40 37.66271 11.10163 30595 ft 473 kts 36°
2026-05-04 12:40 37.68800 11.12818 30976 ft 473 kts 33°
2026-05-04 12:40 37.71419 11.15337 31333 ft 473 kts 31°
2026-05-04 12:40 37.74046 11.17755 31638 ft 475 kts 30°
2026-05-04 12:41 37.76734 11.20194 31958 ft 477 kts 30°
2026-05-04 12:41 37.79428 11.22645 32378 ft 476 kts 30°
2026-05-04 12:41 37.82102 11.25099 32840 ft 474 kts 30°
2026-05-04 12:41 37.84760 11.27559 33265 ft 473 kts 30°
2026-05-04 12:42 37.87413 11.30027 33628 ft 474 kts 30°
2026-05-04 12:42 37.90068 11.32507 34046 ft 472 kts 30°
2026-05-04 12:42 37.92700 11.34973 34383 ft 472 kts 30°
2026-05-04 12:42 37.95347 11.37453 34600 ft 473 kts 30°
2026-05-04 12:43 37.97980 11.39924 34841 ft 470 kts 30°
2026-05-04 12:43 38.00609 11.42394 35074 ft 469 kts 30°
2026-05-04 12:43 38.03233 11.44858 35087 ft 472 kts 30°
2026-05-04 12:44 38.08501 11.49812 35104 ft 470 kts 30°
2026-05-04 12:44 38.13676 11.54697 35100 ft 457 kts 30°
2026-05-04 12:45 38.18755 11.59492 35113 ft 454 kts 30°
2026-05-04 12:45 38.23829 11.64284 35119 ft 455 kts 30°
2026-05-04 12:46 38.28052 11.68280 35125 ft 455 kts 30°
2026-05-04 12:46 38.33131 11.73099 35125 ft 455 kts 30°
2026-05-04 12:47 38.38195 11.77914 35119 ft 454 kts 30°
2026-05-04 12:47 38.43243 11.82722 35117 ft 451 kts 30°
2026-05-04 12:48 38.48261 11.87509 35112 ft 449 kts 30°
2026-05-04 12:48 38.53257 11.92282 35136 ft 447 kts 30°
2026-05-04 12:49 38.58220 11.97092 35124 ft 448 kts 32°
2026-05-04 12:49 38.63035 12.02147 35128 ft 448 kts 33°
2026-05-04 12:50 38.67807 12.07248 35143 ft 446 kts 33°
2026-05-04 12:50 38.72582 12.12321 35139 ft 446 kts 33°
2026-05-04 12:51 38.77358 12.17372 35131 ft 445 kts 32°
2026-05-04 12:51 38.82130 12.22419 35134 ft 444 kts 32°
2026-05-04 12:52 38.86897 12.27469 35135 ft 444 kts 32°
2026-05-04 12:52 38.91660 12.32525 35132 ft 444 kts 33°
2026-05-04 12:53 38.96429 12.37596 35137 ft 446 kts 32°
2026-05-04 12:53 39.01208 12.42687 35149 ft 447 kts 32°
2026-05-04 12:54 39.06003 12.47805 35141 ft 448 kts 32°
2026-05-04 12:54 39.10801 12.52937 35139 ft 449 kts 32°
2026-05-04 12:55 39.15604 12.58084 35145 ft 450 kts 31°
2026-05-04 12:55 39.20422 12.63255 35146 ft 451 kts 31°
2026-05-04 12:56 39.25213 12.68406 35145 ft 452 kts 31°
2026-05-04 12:56 39.30067 12.73637 35144 ft 452 kts 31°
2026-05-04 12:57 39.34864 12.78814 35160 ft 452 kts 31°
2026-05-04 12:57 39.39693 12.84037 35146 ft 452 kts 31°
2026-05-04 12:58 39.44519 12.89267 35143 ft 452 kts 31°
2026-05-04 12:58 39.49336 12.94496 35148 ft 451 kts 31°
2026-05-04 12:59 39.54142 12.99723 35145 ft 451 kts 31°
2026-05-04 12:59 39.58942 13.04952 35158 ft 451 kts 31°
2026-05-04 13:00 39.63602 13.10478 35155 ft 456 kts 36°
2026-05-04 13:00 39.68105 13.16295 35169 ft 457 kts 36°
2026-05-04 13:01 39.72597 13.22123 35165 ft 456 kts 36°
2026-05-04 13:01 39.77116 13.27933 35160 ft 456 kts 36°
2026-05-04 13:02 39.81633 13.33719 35152 ft 456 kts 36°
2026-05-04 13:02 39.86147 13.39506 35154 ft 456 kts 36°
2026-05-04 13:03 39.90657 13.45299 35153 ft 455 kts 36°
2026-05-04 13:03 39.95168 13.51107 34914 ft 458 kts 36°
2026-05-04 13:03 39.97432 13.54024 34348 ft 458 kts 36°
2026-05-04 13:04 39.99701 13.56953 33569 ft 459 kts 36°
2026-05-04 13:04 40.01967 13.59881 32809 ft 459 kts 36°
2026-05-04 13:04 40.04235 13.62815 32053 ft 459 kts 36°
2026-05-04 13:04 40.06504 13.65752 31354 ft 459 kts 37°
2026-05-04 13:05 40.08752 13.68672 30828 ft 454 kts 37°
2026-05-04 13:05 40.10980 13.71567 30293 ft 450 kts 37°
2026-05-04 13:05 40.13192 13.74442 29658 ft 447 kts 37°
2026-05-04 13:05 40.15382 13.77291 29062 ft 442 kts 38°
2026-05-04 13:06 40.17548 13.80109 28499 ft 437 kts 38°
2026-05-04 13:06 40.19692 13.82901 27923 ft 433 kts 38°
2026-05-04 13:06 40.21817 13.85671 27355 ft 430 kts 39°
2026-05-04 13:06 40.23924 13.88418 26793 ft 426 kts 39°
2026-05-04 13:07 40.26007 13.91138 26241 ft 421 kts 39°
2026-05-04 13:07 40.28072 13.93837 25705 ft 418 kts 40°
2026-05-04 13:07 40.30123 13.96519 25155 ft 414 kts 40°
2026-05-04 13:07 40.32153 13.99177 24611 ft 411 kts 40°
2026-05-04 13:08 40.34144 14.01785 24067 ft 409 kts 41°
2026-05-04 13:08 40.36151 14.04417 23468 ft 407 kts 41°
2026-05-04 13:08 40.38146 14.07035 22853 ft 404 kts 41°
2026-05-04 13:08 40.40120 14.09630 22292 ft 400 kts 41°
2026-05-04 13:09 40.42073 14.12200 21745 ft 396 kts 41°
2026-05-04 13:09 40.44011 14.14751 21201 ft 392 kts 42°
2026-05-04 13:09 40.45929 14.17278 20669 ft 389 kts 42°
2026-05-04 13:09 40.47830 14.19785 20147 ft 386 kts 42°
2026-05-04 13:10 40.49722 14.22281 19622 ft 385 kts 42°
2026-05-04 13:10 40.51606 14.24770 19097 ft 384 kts 43°
2026-05-04 13:10 40.53489 14.27259 18562 ft 383 kts 43°
2026-05-04 13:10 40.55363 14.29738 17954 ft 381 kts 43°
2026-05-04 13:11 40.57225 14.32205 17414 ft 377 kts 43°
2026-05-04 13:11 40.59046 14.34647 17233 ft 370 kts 45°
2026-05-04 13:11 40.60774 14.37084 17156 ft 357 kts 45°
2026-05-04 13:11 40.62413 14.39440 17141 ft 340 kts 45°
2026-05-04 13:12 40.63970 14.41679 17142 ft 324 kts 45°
2026-05-04 13:12 40.65476 14.43832 16813 ft 320 kts 45°
2026-05-04 13:12 40.67029 14.46042 15785 ft 338 kts 46°
2026-05-04 13:12 40.68668 14.48374 14828 ft 353 kts 46°
2026-05-04 13:13 40.70331 14.50782 14211 ft 356 kts 48°
2026-05-04 13:13 40.71955 14.53222 13819 ft 349 kts 48°
2026-05-04 13:13 40.73527 14.55599 13551 ft 339 kts 48°
2026-05-04 13:13 40.75058 14.57908 13270 ft 330 kts 48°
2026-05-04 13:14 40.76548 14.60150 13000 ft 321 kts 48°
2026-05-04 13:14 40.78041 14.62296 12718 ft 313 kts 39°
2026-05-04 13:14 40.79900 14.63654 12450 ft 303 kts 14°
2026-05-04 13:14 40.81931 14.63902 12182 ft 287 kts 353°
2026-05-04 13:15 40.83803 14.63286 11922 ft 272 kts 334°
2026-05-04 13:15 40.85422 14.62110 11676 ft 262 kts 327°
2026-05-04 13:15 40.86955 14.60838 11426 ft 259 kts 326°
2026-05-04 13:15 40.88539 14.59744 11159 ft 259 kts 346°
2026-05-04 13:16 40.90319 14.59836 10925 ft 258 kts 19°
2026-05-04 13:16 40.91816 14.61107 10700 ft 258 kts 46°
2026-05-04 13:16 40.92881 14.63014 10478 ft 258 kts 58°
2026-05-04 13:16 40.93805 14.65051 10249 ft 259 kts 59°
2026-05-04 13:17 40.94724 14.67097 10016 ft 259 kts 58°
2026-05-04 13:17 40.95658 14.69139 9754 ft 260 kts 58°
2026-05-04 13:17 40.96601 14.71178 9499 ft 260 kts 58°
2026-05-04 13:17 40.97547 14.73215 9235 ft 260 kts 58°
2026-05-04 13:18 40.98496 14.75253 8987 ft 259 kts 58°
2026-05-04 13:18 40.99441 14.77274 8722 ft 258 kts 58°
2026-05-04 13:18 41.00369 14.79261 8466 ft 257 kts 58°
2026-05-04 13:18 41.01305 14.81267 8211 ft 255 kts 58°
2026-05-04 13:19 41.02237 14.83265 7988 ft 254 kts 58°
2026-05-04 13:19 41.02867 14.84604 7793 ft 253 kts 56°
2026-05-04 13:19 41.04656 14.86417 7533 ft 243 kts 14°
2026-05-04 13:19 41.06302 14.86515 7319 ft 236 kts 348°
2026-05-04 13:20 41.07799 14.85755 7116 ft 227 kts 330°
2026-05-04 13:20 41.09131 14.84688 7039 ft 223 kts 327°
2026-05-04 13:20 41.10450 14.83587 6991 ft 224 kts 327°
2026-05-04 13:20 41.11617 14.82270 6964 ft 219 kts 302°
2026-05-04 13:21 41.12076 14.80373 6979 ft 219 kts 270°
2026-05-04 13:21 41.11736 14.78419 6985 ft 220 kts 243°
2026-05-04 13:21 41.10950 14.76674 6986 ft 221 kts 238°
2026-05-04 13:21 41.10130 14.74943 6977 ft 223 kts 238°
2026-05-04 13:22 41.09308 14.73204 6981 ft 223 kts 238°
2026-05-04 13:22 41.08485 14.71458 6976 ft 223 kts 238°
2026-05-04 13:22 41.07666 14.69716 6979 ft 222 kts 238°
2026-05-04 13:22 41.06852 14.67980 6977 ft 221 kts 238°
2026-05-04 13:23 41.06043 14.66254 6964 ft 219 kts 238°
2026-05-04 13:23 41.05238 14.64535 6653 ft 217 kts 238°
2026-05-04 13:23 41.04457 14.62866 6368 ft 209 kts 238°
2026-05-04 13:23 41.03714 14.61259 6085 ft 199 kts 239°
2026-05-04 13:24 41.03012 14.59698 5866 ft 200 kts 238°
2026-05-04 13:24 41.02288 14.58129 5577 ft 197 kts 238°
2026-05-04 13:24 41.01575 14.56607 5308 ft 193 kts 238°
2026-05-04 13:25 41.00170 14.53631 4751 ft 188 kts 237°
2026-05-04 13:25 40.99480 14.52169 4459 ft 185 kts 238°
2026-05-04 13:25 40.98802 14.50733 4194 ft 185 kts 238°
2026-05-04 13:25 40.98114 14.49274 3906 ft 188 kts 238°
2026-05-04 13:26 40.97433 14.47831 3636 ft 182 kts 238°
2026-05-04 13:26 40.96770 14.46424 3391 ft 181 kts 238°
2026-05-04 13:26 40.96092 14.44987 3125 ft 185 kts 239°
2026-05-04 13:26 40.95642 14.44033 2929 ft 183 kts 239°
2026-05-04 13:27 40.94977 14.42624 2661 ft 178 kts 239°
2026-05-04 13:27 40.94332 14.41253 2398 ft 171 kts 239°
2026-05-04 13:27 40.93726 14.39968 2131 ft 158 kts 239°
2026-05-04 13:27 40.93165 14.38773 1923 ft 154 kts 239°
2026-05-04 13:28 40.92588 14.37551 1701 ft 157 kts 239°
2026-05-04 13:28 40.92016 14.36332 1439 ft 155 kts 238°
2026-05-04 13:28 40.91456 14.35141 1261 ft 147 kts 237°
2026-05-04 13:28 40.90935 14.34033 1018 ft 137 kts 235°
2026-05-04 13:29 40.90431 14.32961 802 ft 134 kts 233°
2026-05-04 13:29 40.89940 14.31919 597 ft 135 kts 231°
2026-05-04 13:29 40.89451 14.30879 416 ft 134 kts 234°
2026-05-04 13:29 40.88965 14.29841 248 ft 126 kts 233°
2026-05-04 13:30 40.88566 14.28999 268 ft 87 kts 238°
2026-05-04 13:30 40.88400 14.28650 281 ft 27 kts 237°
2026-05-04 13:30 40.88283 14.28473 284 ft 25 kts 218°
2026-05-04 13:30 40.88175 14.28384 289 ft 12 kts 209°
2026-05-04 13:31 40.88109 14.28337 292 ft 8 kts 208°
2026-05-04 13:31 40.88088 14.28324 288 ft 2 kts 201°
2026-05-04 13:31 40.88069 14.28326 288 ft 4 kts 153°
2026-05-04 13:31 40.88059 14.28375 287 ft 8 kts 94°
2026-05-04 13:32 40.88056 14.28465 292 ft 12 kts 96°
2026-05-04 13:32 40.88033 14.28526 288 ft 1 kts 139°
2026-05-04 13:32 40.88007 14.28531 287 ft 5 kts 201°
2026-05-04 13:32 40.87978 14.28502 288 ft 5 kts 219°
2026-05-04 13:33 40.87950 14.28473 292 ft 5 kts 220°
2026-05-04 13:33 40.87937 14.28432 293 ft 5 kts 266°
2026-05-04 13:33 40.87941 14.28388 290 ft 5 kts 276°
2026-05-04 13:33 40.87945 14.28345 291 ft 5 kts 276°
2026-05-04 13:34 40.87948 14.28296 291 ft 6 kts 275°
2026-05-04 13:34 40.87955 14.28225 294 ft 9 kts 277°
2026-05-04 13:34 40.87962 14.28143 299 ft 9 kts 265°
2026-05-04 13:34 40.87931 14.28074 303 ft 9 kts 232°
2026-05-04 13:35 40.87885 14.28042 301 ft 8 kts 161°
2026-05-04 13:35 40.87850 14.28077 302 ft 2 kts 142°
2026-05-04 13:35 40.87841 14.28086 300 ft 2 kts 141°
2026-05-04 13:36 40.87839 14.28088 300 ft 0 kts 141°